Simultaneous Nadir Overpasses (SNOs) Predictions

Prediction of SNOs between METOP-B and TERRA Satellite Orbit:

Table of predicted SNOs for the next 14.0 days since TLE Epoch: 2/22/2025
Index Date (METOP-B) Time (METOP-B) Lat,Lon (METOP-B) SZA (METOP-B ) Date (TERRA) Time (TERRA) Lat,Lon (TERRA) SZA (TERRA ) Distance(km) Time Diff (sec)
1 02/22/2025 11:52:27 79.07, 11.03 89.07 02/22/2025 11:52:27 79.07, 11.05 89.07 0.47 0
2 02/25/2025 00:41:40 78.73, 176.53 87.76 02/25/2025 00:42:51 78.73, 176.54 87.76 0.18 71
3 02/25/2025 01:32:12 -79.09, -13.84 91.87 02/25/2025 01:32:03 -79.09, -13.82 91.87 0.31 9
4 02/27/2025 14:21:27 -78.70, 151.39 93.24 02/27/2025 14:22:28 -78.71, 151.49 93.23 2.45 61
5 02/27/2025 15:11:56 79.12, -38.58 87.22 02/27/2025 15:11:37 79.13, -38.55 87.22 0.62 19
6 03/02/2025 04:01:09 78.80, 127.04 85.90 03/02/2025 04:02:00 78.80, 127.03 85.90 0.24 51
7 03/02/2025 04:51:41 -79.16, -63.30 93.72 03/02/2025 04:51:12 -79.15, -63.34 93.73 1.16 29
8 03/04/2025 17:40:54 -78.83, 102.26 95.06 03/04/2025 17:41:34 -78.84, 102.28 95.05 0.48 40
9 03/04/2025 18:31:24 79.21, -87.90 85.36 03/04/2025 18:30:44 79.21, -87.94 85.35 0.73 40
10 03/07/2025 07:20:36 78.92, 77.81 84.04 03/07/2025 07:21:05 78.91, 77.72 84.03 2.07 29



Historial Predications of SNOs between METOP-B and TERRA
